When you browse on this site, cookies collect data to enhance your experience and personalize the content and advertising you see.
Visit our Privacy Policy to learn more. By continuing to use the site, you agree to this use of cookies and data.
  • In Spain
  • List of Countries
  • For 7 days
  • Water Temperature
  • Weather Map
  • Weather Widgets
  • user-avatar
    Login

    Hourly Weather Kruhlyi

    Today, 21 September, Saturday

    Time Temperature Precipitation Wind Pressure Humidity
    00:00 +3°C° 0 mm 0 mps 724 mmHg 84%
    01:00 +3°C° 0 mm 0 mps 724 mmHg 85%
    02:00 +3°C° 0 mm 0 mps 724 mmHg 87%
    03:00 +2°C° 0 mm 0 mps 724 mmHg 88%
    04:00 +2°C° 0 mm 0 mps 724 mmHg 89%
    05:00 +2°C° 0 mm 0 mps 724 mmHg 90%
    06:00 +4°C° 0 mm 0 mps 725 mmHg 83%
    07:00 +5°C° 0 mm 0 mps 725 mmHg 77%
    08:00 +7°C° 0 mm 0 mps 725 mmHg 70%
    09:00 +10°C° 0 mm 1 mps 725 mmHg 64%
    10:00 +12°C° 0 mm 1 mps 725 mmHg 58%
    11:00 +13°C° 0 mm 1 mps 725 mmHg 53%
    12:00 +14°C° 0 mm 2 mps 725 mmHg 52%
    13:00 +14°C° 0 mm 2 mps 724 mmHg 52%
    14:00 +15°C° 0 mm 2 mps 724 mmHg 52%
    15:00 +14°C° 0 mm 2 mps 724 mmHg 55%
    16:00 +14°C° 0 mm 1 mps 724 mmHg 58%
    17:00 +14°C° 0 mm 1 mps 723 mmHg 60%
    18:00 +12°C° 0 mm 1 mps 723 mmHg 68%
    19:00 +10°C° 0 mm 1 mps 723 mmHg 76%
    20:00 +7°C° 0 mm 0 mps 723 mmHg 84%
    21:00 +7°C° 0 mm 1 mps 723 mmHg 84%
    22:00 +7°C° 0 mm 1 mps 723 mmHg 84%
    23:00 +7°C° 0 mm 1 mps 723 mmHg 85%

    Tomorrow, 22 September, Sunday

    Time Temperature Precipitation Wind Pressure Humidity
    00:00 +7°C° 0 mm 1 mps 723 mmHg 84%
    01:00 +7°C° 0 mm 1 mps 723 mmHg 84%
    02:00 +6°C° 0 mm 1 mps 723 mmHg 84%
    03:00 +6°C° 0 mm 1 mps 723 mmHg 84%
    04:00 +6°C° 0 mm 1 mps 722 mmHg 84%
    05:00 +6°C° 0 mm 1 mps 722 mmHg 84%
    06:00 +8°C° 0 mm 1 mps 722 mmHg 79%
    07:00 +8°C° 0 mm 0 mps 722 mmHg 73%
    08:00 +10°C° 0 mm 0 mps 722 mmHg 68%
    09:00 +12°C° 0 mm 0 mps 722 mmHg 61%
    10:00 +15°C° 0 mm 1 mps 722 mmHg 54%
    11:00 +19°C° 0 mm 1 mps 722 mmHg 47%
    12:00 +19°C° 0 mm 1 mps 722 mmHg 46%
    13:00 +20°C° 0 mm 1 mps 721 mmHg 45%
    14:00 +21°C° 0 mm 1 mps 721 mmHg 44%
    15:00 +20°C° 0 mm 1 mps 721 mmHg 50%
    16:00 +19°C° 0 mm 1 mps 720 mmHg 55%
    17:00 +17°C° 0 mm 0 mps 720 mmHg 60%
    18:00 +14°C° 0 mm 0 mps 719 mmHg 66%
    19:00 +13°C° 0 mm 1 mps 719 mmHg 71%
    20:00 +11°C° 0 mm 1 mps 719 mmHg 77%
    21:00 +11°C° 0 mm 1 mps 719 mmHg 76%
    22:00 +10°C° 0 mm 1 mps 719 mmHg 76%
    23:00 +10°C° 0 mm 1 mps 719 mmHg 76%

    Day after tomorrow, 23 September, Monday

    Time Temperature Precipitation Wind Pressure Humidity
    00:00 +10°C° 0 mm 1 mps 719 mmHg 76%
    01:00 +10°C° 0 mm 1 mps 719 mmHg 75%
    02:00 +10°C° 0 mm 1 mps 719 mmHg 75%
    03:00 +10°C° 0 mm 1 mps 719 mmHg 74%
    04:00 +9°C° 0 mm 1 mps 718 mmHg 73%
    05:00 +9°C° 0 mm 1 mps 718 mmHg 71%
    06:00 +11°C° 0 mm 1 mps 718 mmHg 68%
    07:00 +12°C° 0 mm 1 mps 718 mmHg 65%
    08:00 +14°C° 0 mm 1 mps 718 mmHg 61%
    09:00 +16°C° 0 mm 1 mps 718 mmHg 55%
    10:00 +19°C° 0 mm 1 mps 718 mmHg 49%
    11:00 +21°C° 0 mm 1 mps 719 mmHg 42%
    12:00 +22°C° 0 mm 1 mps 718 mmHg 42%
    13:00 +22°C° 0 mm 1 mps 718 mmHg 41%
    14:00 +22°C° 0 mm 1 mps 718 mmHg 41%
    15:00 +21°C° 0 mm 1 mps 718 mmHg 48%
    16:00 +20°C° 0 mm 1 mps 717 mmHg 54%
    17:00 +19°C° 0 mm 1 mps 717 mmHg 60%
    18:00 +16°C° 0 mm 1 mps 717 mmHg 64%
    19:00 +14°C° 0 mm 0 mps 717 mmHg 67%
    20:00 +12°C° 0 mm 0 mps 717 mmHg 70%
    21:00 +12°C° 0 mm 0 mps 717 mmHg 71%
    22:00 +12°C° 0 mm 0 mps 717 mmHg 72%
    23:00 +11°C° 0 mm 0 mps 717 mmHg 74%

    24 September, Tuesday

    Time Temperature Precipitation Wind Pressure Humidity
    00:00 +11°C° 0 mm 0 mps 717 mmHg 75%
    01:00 +11°C° 0 mm 0 mps 716 mmHg 76%
    02:00 +11°C° 0 mm 1 mps 716 mmHg 77%
    03:00 +11°C° 0 mm 1 mps 716 mmHg 78%
    04:00 +10°C° 0 mm 0 mps 716 mmHg 78%
    05:00 +10°C° 0 mm 0 mps 716 mmHg 79%
    06:00 +11°C° 0 mm 0 mps 716 mmHg 76%
    07:00 +12°C° 0 mm 0 mps 716 mmHg 74%
    08:00 +13°C° 0 mm 0 mps 716 mmHg 72%
    09:00 +15°C° 0 mm 1 mps 716 mmHg 68%
    10:00 +18°C° 0 mm 1 mps 716 mmHg 64%
    11:00 +19°C° 0 mm 1 mps 716 mmHg 60%
    12:00 +19°C° 0 mm 1 mps 716 mmHg 62%
    13:00 +19°C° 0 mm 1 mps 715 mmHg 64%
    14:00 +19°C° 0 mm 1 mps 715 mmHg 66%
    15:00 +18°C° 0 mm 1 mps 715 mmHg 69%
    16:00 +18°C° 0 mm 1 mps 714 mmHg 72%
    17:00 +15°C° 0 mm 0 mps 714 mmHg 75%
    18:00 +15°C° 0 mm 1 mps 714 mmHg 80%
    19:00 +14°C° 0 mm 1 mps 714 mmHg 85%
    20:00 +12°C° 0 mm 1 mps 714 mmHg 89%
    21:00 +12°C° 0 mm 1 mps 714 mmHg 89%
    22:00 +11°C° 0 mm 1 mps 714 mmHg 90%
    23:00 +11°C° 0 mm 1 mps 714 mmHg 90%

    25 September, Wednesday

    Time Temperature Precipitation Wind Pressure Humidity
    00:00 +11°C° 0 mm 1 mps 714 mmHg 89%
    01:00 +11°C° 0 mm 1 mps 714 mmHg 88%
    02:00 +11°C° 0 mm 1 mps 714 mmHg 86%
    03:00 +10°C° 0 mm 0 mps 714 mmHg 85%
    04:00 +10°C° 0 mm 0 mps 714 mmHg 84%
    05:00 +11°C° 0 mm 0 mps 714 mmHg 82%
    06:00 +11°C° 0 mm 0 mps 714 mmHg 82%
    07:00 +12°C° 0 mm 0 mps 714 mmHg 81%
    08:00 +12°C° 0 mm 0 mps 714 mmHg 81%
    09:00 +12°C° 0.2 mm 0 mps 714 mmHg 83%
    10:00 +12°C° 0.2 mm 0 mps 714 mmHg 86%
    11:00 +12°C° 0.2 mm 0 mps 714 mmHg 88%
    12:00 +12°C° 0.3 mm 0 mps 714 mmHg 89%
    13:00 +12°C° 0.3 mm 0 mps 714 mmHg 91%
    14:00 +12°C° 0.3 mm 0 mps 714 mmHg 92%
    15:00 +12°C° 0.3 mm 0 mps 714 mmHg 94%
    16:00 +12°C° 0.3 mm 0 mps 714 mmHg 95%
    17:00 +12°C° 0.3 mm 0 mps 713 mmHg 97%
    18:00 +12°C° 0.3 mm 0 mps 714 mmHg 97%
    19:00 +12°C° 0.3 mm 0 mps 714 mmHg 98%
    20:00 +12°C° 0.3 mm 0 mps 714 mmHg 98%
    21:00 +12°C° 0.3 mm 0 mps 714 mmHg 98%
    22:00 +12°C° 0.3 mm 0 mps 714 mmHg 98%
    23:00 +12°C° 0.3 mm 0 mps 714 mmHg 98%

    26 September, Thursday

    Time Temperature Precipitation Wind Pressure Humidity
    00:00 +12°C° 0.8 mm 0 mps 714 mmHg 98%
    01:00 +12°C° 0.8 mm 0 mps 714 mmHg 98%
    02:00 +12°C° 0.8 mm 0 mps 714 mmHg 99%
    03:00 +12°C° 0.7 mm 0 mps 714 mmHg 99%
    04:00 +12°C° 0.7 mm 0 mps 714 mmHg 99%
    05:00 +12°C° 0.7 mm 0 mps 714 mmHg 99%
    06:00 +12°C° 0.2 mm 0 mps 714 mmHg 98%
    07:00 +12°C° 0.2 mm 0 mps 714 mmHg 97%
    08:00 +12°C° 0.2 mm 0 mps 715 mmHg 96%
    09:00 +13°C° 0.3 mm 0 mps 715 mmHg 95%
    10:00 +14°C° 0.3 mm 1 mps 715 mmHg 94%
    11:00 +14°C° 0.3 mm 1 mps 716 mmHg 93%
    12:00 +14°C° 0.5 mm 1 mps 716 mmHg 94%
    13:00 +14°C° 0.5 mm 1 mps 716 mmHg 95%
    14:00 +13°C° 0.5 mm 1 mps 715 mmHg 96%
    15:00 +14°C° 0.2 mm 1 mps 716 mmHg 96%
    16:00 +13°C° 0.2 mm 0 mps 716 mmHg 95%
    17:00 +13°C° 0.2 mm 0 mps 716 mmHg 94%
    18:00 +12°C° 0 mm 0 mps 716 mmHg 95%
    19:00 +11°C° 0 mm 0 mps 716 mmHg 95%
    20:00 +10°C° 0 mm 0 mps 717 mmHg 96%
    21:00 +10°C° 0 mm 0 mps 717 mmHg 96%
    22:00 +10°C° 0 mm 0 mps 717 mmHg 96%
    23:00 +10°C° 0 mm 1 mps 718 mmHg 95%
    Show more